Regional Weather Roundup
Issued by NWS Columbia, SC

Home | Current Version | Previous Version | Text Only | Print | Product List | Glossary On
Versions: 1 2 3 4 5 6 7 8 9 10 11 12 13 14 15 16 17 18 19 20 21 22 23 24 25 26 27 28
000
ASUS42 KCAE 251210
RWRCAE
REGIONAL WEATHER ROUNDUP
NATIONAL WEATHER SERVICE COLUMBIA SC
700 AM EST SUN FEB 25 2018

NOTE: "FAIR" INDICATES FEW OR NO CLOUDS BELOW 12,000 FEET WITH NO
SIGNIFICANT WEATHER AND/OR OBSTRUCTIONS TO VISIBILITY.

NOT ALL STATIONS ARE QUALITY CONTROLLED BY THE NATIONAL
WEATHER SERVICE. USE DATA WITH CAUTION...ESPECIALLY
DEWPOINT OBSERVATIONS.

SCZ001>056-GAZ040-063>065-077-251300-
...UPSTATE SOUTH CAROLINA...

CITY           SKY/WX    TMP DP  RH WIND       PRES   REMARKS
ANDERSON       CLOUDY    61  58  90 S7        30.04S
6HR MIN TEMP:  59; 6HR MAX TEMP:  67;

LIBERTY        CLOUDY    62  61  97 S6        30.01S
6HR MIN TEMP:  61; 6HR MAX TEMP:  68;

SPARTANBURG    FAIR      61  55  82 S3        30.03S
CLEMSON        CLOUDY    63  57  81 S6        30.03S
6HR MIN TEMP:  63; 6HR MAX TEMP:  69;

GREENVILLE     CLOUDY    64  59  83 S9        30.04S
6HR MIN TEMP:  64; 6HR MAX TEMP:  71;

GREENWOOD      FAIR      60  57  89 S7        30.07R
6HR MIN TEMP:  60; 6HR MAX TEMP:  67;

GREER          MOCLDY    62  58  86 S10       30.04R
6HR MIN TEMP:  62; 6HR MAX TEMP:  68;

ROCK HILL      FAIR      61  58  90 S7        30.05R
6HR MIN TEMP:  61; 6HR MAX TEMP:  66;

CHESTER        FAIR      61  57  88 S5        30.06S
LAURENS        FAIR      61  57  88 S7        30.05S


...CENTRAL SOUTH CAROLINA...

CITY           SKY/WX    TMP DP  RH WIND       PRES   REMARKS
COLUMBIA APT   FAIR      64  62  93 S6        30.07S
6HR MIN TEMP:  64; 6HR MAX TEMP:  68;

COLUMBIA OWENS FAIR      63  61  93 S5        30.09R
6HR MIN TEMP:  63; 6HR MAX TEMP:  67;

MCENTIRE ANGB  FAIR      63  63 100 S6        30.09R
6HR MIN TEMP:  63; 6HR MAX TEMP:  67;

ORANGEBURG     FAIR      62  60  93 S6        30.10S
6HR MIN TEMP:  61; 6HR MAX TEMP:  66;

SUMTER SHAW    FAIR      64  62  94 S9        30.07R
6HR MIN TEMP:  63; 6HR MAX TEMP:  66;

NEWBERRY       FAIR      61  59  94 S5        30.09S
AIKEN          FAIR      61  61 100 S9        30.11S
BARNWELL         N/A     64  64 100 CALM      30.11R
MANNING        FAIR      64  55  72 MISG      30.11R
CAMDEN         FAIR      63  61  94 CALM      30.08S
LANCASTER      FAIR      63  63 100 S6        30.07R
WINNSBORO      FAIR      61  59  94 S8        30.06S


...EASTERN AND COASTAL SOUTH CAROLINA...

CITY           SKY/WX    TMP DP  RH WIND       PRES   REMARKS
MYRTLE BEACH   FAIR      66  64  93 S8        30.13S
6HR MIN TEMP:  65; 6HR MAX TEMP:  67;

N MYRTLE BCH   CLOUDY    63  63 100 SW13      30.12R
6HR MIN TEMP:  63; 6HR MAX TEMP:  65;

CONWAY         FAIR      64  64 100 S6        30.12R FOG
MARION         FAIR      61  61 100 S6        30.10S FOG
HARTSVILLE     FAIR      61  61 100 S5        30.08R FOG
FLORENCE       CLOUDY    63  63 100 S5        30.10R
6HR MIN TEMP:  63; 6HR MAX TEMP:  66;

DARLINGTON     FAIR      63  62  97 S9        30.08S
6HR MIN TEMP:  63; 6HR MAX TEMP:  65;

CHARLESTON APT FAIR      66  63  90 S12       30.12S
6HR MIN TEMP:  65; 6HR MAX TEMP:  69;

MOUNT PLEASANT FAIR      66  64  94 S10G17    30.13S
WALTERBORO     FAIR      63  63 100 S6        30.13S
BEAUFORT       FAIR      67  66  97 S5        30.13
6HR MIN TEMP:  67; 6HR MAX TEMP:  69;



...EASTERN GEORGIA...

CITY           SKY/WX    TMP DP  RH WIND       PRES   REMARKS
AUGUSTA BUSH F FAIR      61  60  97 S6        30.08S
6HR MIN TEMP:  60; 6HR MAX TEMP:  66;

AUGUSTA DANIEL FAIR      63  60  90 S6        30.08S
6HR MIN TEMP:  62; 6HR MAX TEMP:  69;

THOMSON        FAIR      60  58  92 W5        30.12R
6HR MIN TEMP:  60; 6HR MAX TEMP:  66;

WASHINGTON     FAIR      59  55  88 S3        30.07R
CLAXTON        FAIR      65  64  94 CALM      30.13S
6HR MIN TEMP:  65; 6HR MAX TEMP:  68;

SYLVANIA       FAIR      64  64 100 CALM      30.13R
6HR MIN TEMP:  63; 6HR MAX TEMP:  67;

STATESBORO     FAIR      65  50  59 S6        30.12S
6HR MIN TEMP:  64; 6HR MAX TEMP:  67;

SAVANNAH       FAIR      64  62  93 S6        30.14R
6HR MIN TEMP:  64; 6HR MAX TEMP:  67;



...SOUTHERN NORTH CAROLINA...

CITY           SKY/WX    TMP DP  RH WIND       PRES   REMARKS
CHARLOTTE      FAIR      63  59  87 S13       30.04R
6HR MIN TEMP:  62; 6HR MAX TEMP:  67;

MONROE         FAIR      63  59  87 S9G18     30.04S
6HR MIN TEMP:  61; 6HR MAX TEMP:  66;

WADESBORO      FAIR      63  60  88 S3        30.06R
6HR MIN TEMP:  63; 6HR MAX TEMP:  66;

ROCKINGHAM     CLOUDY    63  63 100 S8        30.07S
6HR MIN TEMP:  63; 6HR MAX TEMP:  65;

RUTHERFORDTON  CLOUDY    63  59  87 S9G16     30.01S
6HR MIN TEMP:  63; 6HR MAX TEMP:  67;

ASHEVILLE      MOCLDY    62  54  74 S9        30.02R
6HR MIN TEMP:  62; 6HR MAX TEMP:  67;


$$




USA.gov is the U.S. government's official web portal to all federal, state and local government web resources and services.